When you browse on this site, cookies collect data to enhance your experience and personalize the content and advertising you see.
Visit our Privacy Policy to learn more. By continuing to use the site, you agree to this use of cookies and data.
  • In Czech Republic
  • List of Countries
  • For 7 days
  • Water Temperature
  • Satellite Maps
  • Weather Map
  • Weather Widgets
  • user-avatar
    Login

    Hourly Weather Waterford

    Today, 18 April, Thursday

    Time Temperature Precipitation Wind Pressure Humidity
    00:00 +13°C° 0 mm 6 mps 727 mmHg 87%
    01:00 +13°C° 0 mm 6 mps 726 mmHg 89%
    02:00 +14°C° 0 mm 6 mps 726 mmHg 90%
    03:00 +15°C° 0 mm 6 mps 725 mmHg 92%
    04:00 +15°C° 0.2 mm 6 mps 725 mmHg 93%
    05:00 +15°C° 0.2 mm 5 mps 725 mmHg 94%
    06:00 +15°C° 0.2 mm 5 mps 725 mmHg 95%
    07:00 +16°C° 0.9 mm 5 mps 725 mmHg 94%
    08:00 +16°C° 0.9 mm 6 mps 725 mmHg 92%
    09:00 +17°C° 0.9 mm 6 mps 725 mmHg 90%
    10:00 +17°C° 0.3 mm 7 mps 725 mmHg 86%
    11:00 +18°C° 0.3 mm 7 mps 724 mmHg 82%
    12:00 +18°C° 0.3 mm 8 mps 724 mmHg 78%
    13:00 +18°C° 0.9 mm 7 mps 724 mmHg 81%
    14:00 +17°C° 0.9 mm 7 mps 724 mmHg 84%
    15:00 +16°C° 0.9 mm 6 mps 725 mmHg 88%
    16:00 +15°C° 1.2 mm 5 mps 725 mmHg 88%
    17:00 +13°C° 1.2 mm 3 mps 725 mmHg 89%
    18:00 +13°C° 1.2 mm 2 mps 725 mmHg 89%
    19:00 +12°C° 1.1 mm 2 mps 725 mmHg 90%
    20:00 +11°C° 1.1 mm 3 mps 725 mmHg 91%
    21:00 +10°C° 1.1 mm 3 mps 726 mmHg 92%
    22:00 +10°C° 1 mm 4 mps 725 mmHg 91%
    23:00 +8°C° 1 mm 4 mps 725 mmHg 91%

    Tomorrow, 19 April, Friday

    Time Temperature Precipitation Wind Pressure Humidity
    00:00 +7°C° 1 mm 5 mps 725 mmHg 91%
    01:00 +7°C° 1.2 mm 5 mps 724 mmHg 91%
    02:00 +7°C° 1.2 mm 5 mps 724 mmHg 92%
    03:00 +7°C° 1.2 mm 5 mps 724 mmHg 92%
    04:00 +5°C° 3.7 mm 6 mps 723 mmHg 91%
    05:00 +4°C° 3.7 mm 7 mps 723 mmHg 91%
    06:00 +2°C° 3.7 mm 8 mps 722 mmHg 91%
    07:00 +2°C° 2.7 mm 8 mps 722 mmHg 90%
    08:00 +2°C° 2.7 mm 8 mps 722 mmHg 89%
    09:00 +2°C° 2.7 mm 8 mps 722 mmHg 88%
    10:00 +2°C° 0.3 mm 8 mps 723 mmHg 88%
    11:00 +1°C° 0.3 mm 9 mps 723 mmHg 87%
    12:00 +1°C° 0.3 mm 9 mps 723 mmHg 87%
    13:00 +1°C° 0.6 mm 9 mps 723 mmHg 86%
    14:00 +1°C° 0.6 mm 9 mps 723 mmHg 86%
    15:00 +1°C° 0.6 mm 9 mps 723 mmHg 86%
    16:00 +1°C° 0.1 mm 9 mps 724 mmHg 86%
    17:00 +1°C° 0.1 mm 10 mps 724 mmHg 85%
    18:00 +1°C° 0.1 mm 10 mps 724 mmHg 85%
    19:00 +1°C° 0 mm 10 mps 724 mmHg 85%
    20:00 +1°C° 0 mm 9 mps 724 mmHg 85%
    21:00 +1°C° 0 mm 9 mps 725 mmHg 85%
    22:00 +1°C° 0.4 mm 9 mps 724 mmHg 86%
    23:00 +1°C° 0.4 mm 8 mps 724 mmHg 87%

    Day after tomorrow, 20 April, Saturday

    Time Temperature Precipitation Wind Pressure Humidity
    00:00 +1°C° 0.4 mm 8 mps 723 mmHg 87%
    01:00 +1°C° 0.1 mm 8 mps 723 mmHg 88%
    02:00 +1°C° 0.1 mm 9 mps 722 mmHg 89%
    03:00 +1°C° 0.1 mm 9 mps 722 mmHg 89%
    04:00 +1°C° 0.5 mm 8 mps 722 mmHg 90%
    05:00 +2°C° 0.5 mm 8 mps 722 mmHg 91%
    06:00 +2°C° 0.5 mm 8 mps 721 mmHg 91%
    07:00 +3°C° 1.6 mm 7 mps 721 mmHg 92%
    08:00 +3°C° 1.6 mm 7 mps 721 mmHg 92%
    09:00 +3°C° 1.6 mm 7 mps 721 mmHg 92%
    10:00 +3°C° 0.6 mm 6 mps 722 mmHg 92%
    11:00 +5°C° 0.6 mm 5 mps 722 mmHg 92%
    12:00 +5°C° 0.6 mm 4 mps 722 mmHg 92%
    13:00 +5°C° 0.4 mm 4 mps 722 mmHg 92%
    14:00 +4°C° 0.4 mm 4 mps 722 mmHg 92%
    15:00 +4°C° 0.4 mm 3 mps 722 mmHg 92%
    16:00 +4°C° 0.2 mm 3 mps 723 mmHg 92%
    17:00 +4°C° 0.2 mm 3 mps 723 mmHg 92%
    18:00 +5°C° 0.2 mm 2 mps 724 mmHg 92%
    19:00 +5°C° 0.1 mm 2 mps 725 mmHg 93%
    20:00 +4°C° 0.1 mm 2 mps 725 mmHg 94%
    21:00 +4°C° 0.1 mm 2 mps 725 mmHg 94%
    22:00 +5°C° 0.2 mm 1 mps 726 mmHg 94%
    23:00 +5°C° 0.2 mm 1 mps 726 mmHg 94%

    21 April, Sunday

    Time Temperature Precipitation Wind Pressure Humidity
    00:00 +5°C° 0.2 mm 1 mps 726 mmHg 94%
    01:00 +5°C° 0.1 mm 1 mps 727 mmHg 94%
    02:00 +5°C° 0.1 mm 1 mps 727 mmHg 94%
    03:00 +5°C° 0.1 mm 1 mps 728 mmHg 94%
    04:00 +5°C° 0 mm 1 mps 728 mmHg 94%
    05:00 +6°C° 0 mm 1 mps 729 mmHg 93%
    06:00 +6°C° 0 mm 1 mps 730 mmHg 93%
    07:00 +8°C° 0 mm 1 mps 730 mmHg 85%
    08:00 +9°C° 0 mm 1 mps 731 mmHg 78%
    09:00 +11°C° 0 mm 1 mps 732 mmHg 70%
    10:00 +13°C° 0 mm 1 mps 732 mmHg 63%
    11:00 +15°C° 0 mm 1 mps 732 mmHg 56%
    12:00 +17°C° 0 mm 2 mps 733 mmHg 49%
    13:00 +16°C° 0 mm 2 mps 733 mmHg 50%
    14:00 +16°C° 0 mm 2 mps 733 mmHg 52%
    15:00 +16°C° 0 mm 2 mps 733 mmHg 54%
    16:00 +15°C° 0 mm 2 mps 733 mmHg 56%
    17:00 +15°C° 0 mm 2 mps 734 mmHg 58%
    18:00 +15°C° 0 mm 2 mps 734 mmHg 59%
    19:00 +14°C° 0 mm 2 mps 734 mmHg 62%
    20:00 +12°C° 0 mm 3 mps 734 mmHg 65%
    21:00 +11°C° 0 mm 3 mps 735 mmHg 68%
    22:00 +11°C° 0.8 mm 3 mps 734 mmHg 72%
    23:00 +11°C° 0.8 mm 3 mps 734 mmHg 76%

    22 April, Monday

    Time Temperature Precipitation Wind Pressure Humidity
    00:00 +10°C° 0.8 mm 3 mps 734 mmHg 80%
    01:00 +10°C° 0.9 mm 3 mps 734 mmHg 85%
    02:00 +10°C° 0.9 mm 3 mps 734 mmHg 89%
    03:00 +10°C° 0.9 mm 2 mps 734 mmHg 93%
    04:00 +12°C° 0.1 mm 2 mps 735 mmHg 94%
    05:00 +12°C° 0.1 mm 2 mps 735 mmHg 96%
    06:00 +12°C° 0.1 mm 1 mps 735 mmHg 98%
    07:00 +13°C° 0.2 mm 1 mps 736 mmHg 96%
    08:00 +13°C° 0.2 mm 0 mps 736 mmHg 93%
    09:00 +13°C° 0.2 mm 0 mps 736 mmHg 91%
    10:00 +15°C° 0.4 mm 1 mps 736 mmHg 91%
    11:00 +15°C° 0.4 mm 2 mps 737 mmHg 91%
    12:00 +14°C° 0.4 mm 3 mps 737 mmHg 90%
    13:00 +16°C° 0 mm 3 mps 737 mmHg 86%
    14:00 +16°C° 0 mm 3 mps 736 mmHg 83%
    15:00 +17°C° 0 mm 3 mps 736 mmHg 79%
    16:00 +14°C° 0.5 mm 3 mps 737 mmHg 82%
    17:00 +13°C° 0.5 mm 3 mps 737 mmHg 86%
    18:00 +11°C° 0.5 mm 4 mps 737 mmHg 89%
    19:00 +10°C° 0.4 mm 4 mps 737 mmHg 90%
    20:00 +9°C° 0.4 mm 3 mps 737 mmHg 90%
    21:00 +8°C° 0.4 mm 3 mps 738 mmHg 90%
    22:00 +8°C° 0 mm 3 mps 738 mmHg 90%
    23:00 +7°C° 0 mm 4 mps 738 mmHg 91%

    23 April, Tuesday

    Time Temperature Precipitation Wind Pressure Humidity
    00:00 +7°C° 0 mm 4 mps 738 mmHg 91%
    01:00 +7°C° 0 mm 4 mps 739 mmHg 91%
    02:00 +6°C° 0 mm 4 mps 739 mmHg 91%
    03:00 +6°C° 0 mm 5 mps 739 mmHg 91%
    04:00 +6°C° 0 mm 5 mps 740 mmHg 89%
    05:00 +6°C° 0 mm 5 mps 740 mmHg 88%
    06:00 +6°C° 0 mm 5 mps 741 mmHg 86%
    07:00 +6°C° 0.1 mm 5 mps 741 mmHg 85%
    08:00 +6°C° 0.1 mm 5 mps 742 mmHg 83%
    09:00 +6°C° 0.1 mm 5 mps 743 mmHg 82%
    10:00 +6°C° 0 mm 4 mps 743 mmHg 81%
    11:00 +6°C° 0 mm 4 mps 743 mmHg 80%
    12:00 +6°C° 0 mm 4 mps 743 mmHg 79%
    13:00 +7°C° 0 mm 4 mps 743 mmHg 76%
    14:00 +8°C° 0 mm 4 mps 743 mmHg 72%
    15:00 +11°C° 0 mm 4 mps 743 mmHg 69%
    16:00 +10°C° 0.6 mm 3 mps 743 mmHg 73%
    17:00 +9°C° 0.6 mm 3 mps 743 mmHg 78%
    18:00 +8°C° 0.6 mm 2 mps 743 mmHg 83%
    19:00 +8°C° 0.2 mm 2 mps 743 mmHg 80%
    20:00 +7°C° 0.2 mm 3 mps 743 mmHg 77%
    21:00 +7°C° 0.2 mm 3 mps 743 mmHg 74%
    22:00 +6°C° 0.1 mm 2 mps 743 mmHg 76%
    23:00 +6°C° 0.1 mm 2 mps 742 mmHg 78%
    Show more